DW8722 Weather Reports


time (UTC)temp
F
wind
direction
speed
knots
gust
knots
rain 1hr
in
rain 24hr
in
rain mn
in
humidity
%
barometer
mb
20220525132209 62 232 4.3 9.6 0.00 2.27 0.13 95 1007.0
20220525131219 62 205 4.3 10.4 0.00 2.27 0.13 95 1006.7
20220525130206 62 241 4.3 11.3 0.00 2.27 0.13 95 1006.8
20220525125229 62 218 4.3 11.3 0.00 2.27 0.13 95 1006.8
20220525124248 62 225 4.3 8.7 0.00 2.27 0.13 95 1006.9
20220525123302 61 205 5.2 8.7 0.00 2.27 0.13 95 1006.8
20220525122325 61 199 4.3 8.7 0.00 2.27 0.13 95 1006.8
20220525121321 61 207 4.3 8.7 0.00 2.27 0.13 95 1006.8
20220525120314 61 202 4.3 8.7 0.00 2.27 0.13 95 1006.7
20220525115259 60 209 3.5 6.1 0.00 2.27 0.13 95 1006.5
20220525114319 60 194 2.6 7.0 0.00 2.27 0.13 95 1006.4
20220525113245 60 228 3.5 7.0 0.00 2.27 0.13 95 1006.2
20220525112250 60 205 2.6 6.1 0.00 2.27 0.13 95 1006.1
20220525111251 60 187 2.6 3.5 0.00 2.27 0.13 95 1005.9
20220525110254 60 227 0.9 3.5 0.00 2.27 0.13 95 1005.6
20220525105312 60 225 1.7 5.2 0.00 2.27 0.13 94 1005.5
20220525104242 60 211 2.6 7.0 0.00 2.27 0.13 95 1005.6
20220525103212 61 208 3.5 9.6 0.00 2.27 0.13 95 1005.3
20220525102221 61 186 4.3 9.6 0.00 2.27 0.13 95 1005.4
20220525101223 61 209 4.3 16.5 0.00 2.27 0.13 95 1005.4
20220525100210 61 225 7.8 23.5 0.00 2.27 0.13 95 1005.5
20220525095203 61 240 11.3 23.5 0.00 2.27 0.13 95 1005.6
20220525094129 61 205 7.8 17.4 0.00 2.27 0.13 95 1004.7
20220525093139 61 63 7.8 17.4 0.00 2.27 0.13 95 1002.2
20220525092159 61 90 7.8 13.0 0.00 2.27 0.13 95 1003.6
20220525091137 61 117 7.0 14.8 0.00 2.27 0.13 95 1004.8
20220525090133 61 134 7.0 14.8 0.00 2.27 0.13 95 1005.8
20220525085130 62 155 6.1 11.3 0.00 2.27 0.13 95 1006.4
20220525084121 62 183 6.1 12.2 0.00 2.27 0.13 95 1007.1
20220525083059 62 189 6.1 13.9 0.00 2.27 0.13 95 1007.5
20220525082100 62 186 5.2 13.9 0.00 2.27 0.13 95 1007.2
20220525081110 62 156 5.2 10.4 0.00 2.27 0.13 95 1006.7
20220525080038 62 169 2.6 9.6 0.00 2.27 0.13 95 1005.8
20220525075045 62 103 4.3 9.6 0.00 2.27 0.13 95 1003.5
20220525074019 62 42 1.7 4.3 0.06 2.26 0.13 95 1005.5
20220525073013 62 90 0.9 1.7 0.05 2.25 0.12 95 1005.7
20220525071959 62 91 0.9 1.7 0.05 2.24 0.10 95 1005.9
20220525071007 62 155 0.0 1.7 0.05 2.23 0.10 95 1006.2
20220525065951 62 195 0.0 0.0 0.08 2.23 0.10 95 1006.4
20220525065007 62 195 0.0 0.9 0.05 2.21 0.08 95 1006.6
20220525063946 62 195 2.6 7.0 0.06 2.20 0.06 95 1007.2
20220525062932 62 194 3.5 7.0 0.09 2.19 0.06 95 1007.5
20220525061917 62 188 2.6 6.1 0.08 2.18 0.05 95 1008.0
20220525060941 62 164 1.7 5.2 0.05 2.17 0.04 95 1008.0
20220525055909 62 146 2.6 5.2 0.10 2.16 0.03 95 1008.0
20220525054843 62 67 0.0 1.7 0.00 2.14 0.01 95 1007.7
20220525053814 62 67 0.9 1.7 0.00 2.14 0.01 95 1007.5
20220525052744 62 67 0.0 2.6 0.00 2.14 0.01 95 1007.2
20220525051754 62 67 0.9 7.0 0.00 2.13 0.00 95 1007.4
20220525050755 62 49 2.6 8.7 0.00 2.13 0.00 95 1007.3
20220525045815 62 71 2.6 8.7 0.05 2.13 2.14 95 1007.6
20220525044800 62 79 2.6 7.0 0.17 2.13 2.14 95 1007.8
20220525043730 62 73 0.9 6.1 0.31 2.10 2.11 95 1008.4
20220525042720 62 76 1.7 5.2 0.12 2.06 2.06 95 1008.6
20220525041646 62 64 1.7 7.0 0.09 2.04 2.05 95 1008.7
20220525040649 62 51 2.6 7.0 0.10 2.04 2.04 94 1008.8
20220525035700 62 68 1.7 5.2 0.09 2.01 2.02 94 1009.1
20220525034658 62 80 1.7 5.2 0.13 2.01 2.00 94 1009.3
20220525033653 62 91 1.7 3.5 0.08 1.99 1.98 94 1009.3
20220525032623 62 59 0.9 3.5 0.09 1.96 1.96 94 1009.5
20220525031615 62 57 0.9 3.5 0.10 1.94 1.96 94 1009.4
20220525030627 62 67 0.9 2.6 0.36 1.92 1.93 94 1009.6
20220525025647 62 129 1.7 3.5 0.65 1.85 1.86 94 1010.3
20220525024613 62 294 1.7 7.8 1.10 1.64 1.66 94 1010.3
20220525023548 62 5 6.1 12.2 0.20 1.54 1.55 94 1008.7
20220525022603 62 5 7.0 12.2 0.33 1.51 1.51 94 1008.2
20220525021615 62 22 6.1 11.3 0.20 1.47 1.48 94 1008.2
20220525020540 62 46 5.2 11.3 0.55 1.42 1.43 94 1008.7
20220525015514 62 77 2.6 9.6 0.27 1.30 1.30 94 1009.3
20220525014453 63 31 5.2 13.9 0.38 1.26 1.26 93 1008.6
20220525013513 63 46 7.8 14.8 0.46 1.19 1.20 93 1008.1
20220525012443 63 355 9.6 17.4 1.20 0.92 0.93 92 1007.9
20220525011449 64 325 8.7 18.2 2.53 0.33 0.36 92 1009.0
20220525010448 66 289 6.1 18.2 0.00 0.26 0.26 92 1008.0
20220525005510 66 336 5.2 10.4 0.00 0.26 0.26 93 1007.1
20220525004525 66 48 2.6 7.0 0.00 0.26 0.26 92 1006.4
20220525003533 66 22 3.5 5.2 0.00 0.26 0.26 92 1006.1
20220525002039 67 51 2.6 7.0 0.05 0.26 0.26 92 1005.3
20220525001042 67 30 2.6 8.7 0.13 0.26 0.26 91 1005.4
20220525000050 67 94 3.5 11.3 0.37 0.23 0.24 90 1005.5
20220524235035 68 69 5.2 11.3 0.00 0.21 0.21 89 1005.3
20220524234050 68 39 6.1 10.4 0.00 0.21 0.21 90 1005.0
20220524233025 68 44 4.3 8.7 0.00 0.21 0.21 89 1005.1
20220524232010 68 32 3.5 7.8 0.00 0.21 0.21 89 1005.1
20220524231023 67 32 4.3 8.7 0.00 0.21 0.21 89 1005.2
20220524230044 67 22 2.6 8.7 0.00 0.21 0.21 90 1005.3
20220524225015 67 30 4.3 9.6 0.00 0.21 0.21 90 1005.4
20220524224013 67 5 3.5 9.6 0.00 0.21 0.21 89 1005.4
20220524222955 67 13 4.3 8.7 0.00 0.21 0.21 89 1005.8
20220524221938 67 18 5.2 8.7 0.00 0.21 0.21 89 1006.2
20220524220948 67 40 3.5 7.8 0.00 0.21 0.21 90 1006.4
20220524215937 67 34 4.3 7.8 0.00 0.21 0.21 89 1006.5
20220524214939 67 38 2.6 6.1 0.00 0.21 0.21 90 1006.7
20220524213912 67 11 3.5 7.0 0.00 0.21 0.21 90 1006.9
20220524212844 67 23 4.3 7.8 0.00 0.21 0.21 90 1006.9
20220524211811 67 5 4.3 12.2 0.00 0.21 0.21 90 1007.0
20220524210833 66 0 6.1 12.2 0.00 0.21 0.21 90 1007.1
20220524205811 67 44 5.2 14.8 0.00 0.21 0.21 90 1007.1
20220524204758 67 350 6.1 14.8 0.00 0.21 0.21 90 1007.2
20220524203745 67 0 4.3 13.9 0.00 0.21 0.21 92 1007.2
20220524202750 66 321 6.1 13.9 0.00 0.21 0.21 92 1007.2
20220524201738 66 321 7.0 11.3 0.00 0.21 0.21 92 1007.5
20220524200727 66 355 5.2 11.3 0.00 0.21 0.21 92 1007.7
20220524195736 66 323 5.2 9.6 0.00 0.21 0.21 92 1008.0
20220524194735 66 336 6.1 13.9 0.00 0.21 0.21 92 1008.0
20220524193753 66 310 7.0 13.9 0.00 0.21 0.21 92 1008.2
20220524192804 66 343 7.8 12.2 0.04 0.21 0.21 93 1008.1
20220524191737 65 307 7.0 12.2 0.13 0.21 0.21 93 1008.3
20220524190758 64 22 7.8 12.2 0.00 0.16 0.17 92 1008.4
20220524185820 65 257 9.6 16.5 0.00 0.16 0.16 91 1008.4
20220524184821 66 304 9.6 19.1 0.06 0.16 0.16 90 1008.7
20220524183755 68 305 7.0 19.1 0.15 0.14 0.16 86 1008.1
20220524182739 73 167 0.9 4.3 0.64 0.10 0.10 90 1007.9
20220524181716 73 159 0.9 0.9 0.15 0.06 0.06 89 1008.0
20220524180733 73 157 1.7 4.3 0.00 0.01 0.01 88 1008.1
20220524175741 73 124 1.7 6.1 0.00 0.00 0.00 88 1008.1
20220524174800 73 141 1.7 7.0 0.00 0.00 0.00 88 1008.3
20220524173816 73 161 3.5 7.0 0.00 0.00 0.00 88 1008.3
20220524172810 72 142 1.7 7.0 0.00 0.00 0.00 88 1008.3
20220524171831 72 123 2.6 7.0 0.00 0.00 0.00 89 1008.6
20220524170855 72 159 4.3 7.0 0.00 0.00 0.00 89 1008.7
20220524165829 72 134 3.5 7.8 0.00 0.00 0.00 89 1008.7
20220524164827 71 165 4.3 8.7 0.00 0.00 0.00 90 1008.8
20220524163838 71 168 4.3 8.7 0.00 0.00 0.00 90 1008.9
20220524162811 71 144 4.3 15.6 0.00 0.00 0.00 90 1009.0
20220524161758 70 172 7.0 15.6 0.00 0.00 0.00 90 1009.1
20220524160805 70 123 6.1 11.3 0.00 0.00 0.00 92 1009.1
20220524155810 69 138 6.1 12.2 0.00 0.00 0.00 92 1009.1
20220524154805 69 138 7.0 12.2 0.00 0.00 0.00 92 1009.2
20220524153748 69 134 5.2 11.3 0.00 0.00 0.00 93 1009.1
20220524152717 68 114 6.1 10.4 0.00 0.00 0.00 93 1009.2
20220524151724 68 150 7.0 13.0 0.00 0.00 0.00 93 1009.5
20220524150742 68 97 6.1 13.0 0.00 0.00 0.00 94 1009.6
20220524145720 68 128 4.3 10.4 0.00 0.00 0.00 94 1009.8
20220524144726 68 129 4.3 10.4 0.00 0.00 0.00 94 1009.7
20220524143705 67 150 4.3 10.4 0.00 0.00 0.00 94 1009.7
20220524142703 67 123 4.3 12.2 0.00 0.00 0.00 94 1009.4
20220524141650 67 106 6.1 12.2 0.00 0.00 0.00 94 1009.2
20220524140625 67 97 5.2 10.4 0.00 0.00 0.00 94 1009.4
20220524135644 67 113 5.2 9.6 0.00 0.00 0.00 94 1009.9
20220524134622 66 132 6.1 12.2 0.00 0.00 0.00 94 1010.2
20220524133557 66 121 6.1 12.2 0.00 0.00 0.00 94 1010.2